Regional Weather Roundup
Issued by NWS

Home | Current Version | Previous Version | Graphics & Text | Print | Product List | Glossary On
Versions: 1 2 3 4 5 6 7 8 9 10 11 12 13 14 15 16 17 18 19 20 21 22 23 24 25 26 27 28 29 30 31 32 33 34 35 36 37 38 39 40 41 42 43 44 45 46 47 48 49 50
000
ASUS43 KLOT 272300
RWRIL

ILLINOIS REGIONAL WEATHER ROUNDUP
NATIONAL WEATHER SERVICE CHICAGO/ROMEOVILLE IL
500 PM CST FRI FEB 27 2015

NOTE: "FAIR" INDICATES FEW OR NO CLOUDS BELOW 12,000 FEET WITH NO
SIGNIFICANT WEATHER AND/OR OBSTRUCTIONS TO VISIBILITY.

* THESE STATIONS ARE NOT UNDER NWS QUALITY CONTROL. THEY ALSO MAY NOT
  REPORT WEATHER SUCH AS PRECIPITATION OR FOG.

ILZ001-002-007-009-015-016-024-280000-
NORTHWEST ILLINOIS

CITY           SKY/WX    TMP DP  RH WIND       PRES   REMARKS
MOLINE         CLEAR      9  -5  53 SW5       30.63R WCI   1
STERLING*      CLEAR     10  -2  56 W5        30.63R WCI   2
$$

ILZ003-004-008-010-011-017-018-280000-
NORTH CENTRAL ILLINOIS

CITY           SKY/WX    TMP DP  RH WIND       PRES   REMARKS
ROCKFORD       CLEAR     11  -5  48 W5        30.60S WCI   3
FREEPORT*      CLEAR      8  -3  59 SW8       30.60R WCI  -4
DE KALB*       CLEAR      8  -4  59 SW7       30.59S WCI  -4
$$

ILZ005-006-012>014-019>023-280000-
NORTHEAST ILLINOIS

CITY           SKY/WX    TMP DP  RH WIND       PRES   REMARKS
CHICAGO-OHARE  CLEAR     11  -5  48 W8        30.59R WCI  -1
CHICAGO-MIDWAY CLEAR     15  -2  46 SW10      30.61R WCI   2
AURORA         CLEAR      7  -4  60 W8        30.62R WCI  -6
LANSING*       CLEAR     13  -2  51 SW8       30.62R WCI   1
WAUKEGAN       CLEAR     13  -3  49 SW7       30.56S WCI   3
DUPAGE AIRPORT CLEAR     10  -5  50 W7        30.59R WCI  -1
WHEELING       CLEAR     13  -6  42 SW7       30.60S WCI   3
NORTHERLY ISL    N/A     17  -3  41 W3          N/A
$$

LMZ740>746-280000-
SOUTHERN LAKE MICHIGAN

STATION/POSITION SKY/WX   TEMP    WIND        PRES    VSBY  WAVE
                          AIR SEA DIR/SP/G                  HT/PER
                          (F)     (DEG/KT/KT) (MB)    (MI)  (FT/S)
WAUKEGAN HARBOR            14     240/  9/ 12   N/A
HARRISON CRIB              16     270/  7/ 10   N/A
BURNHAM HARBOR             17     210/  4/ 12   N/A
CALUMET HARBOR             16     200/  6/ 11 1034.8R
MICHIGAN CITY              16     230/  3/  4   N/A
$$

ILZ025>027-034>036-040-047-049-050-058-095>099-280000-
WEST-CENTRAL ILLINOIS

CITY           SKY/WX    TMP DP  RH WIND       PRES   REMARKS
QUINCY         CLEAR     11  -4  51 E3        30.61F
MACOMB*        CLEAR      8  -1  67 NE5       30.65F WCI   0
$$

ILZ028>032-037-038-041>044-048-051>054-059>061-280000-
CENTRAL ILLINOIS

CITY           SKY/WX    TMP DP  RH WIND       PRES   REMARKS
DECATUR        CLEAR     12   2  64 SE6       30.64R WCI   3
PEORIA         CLEAR     15  -3  44 W7        30.64R WCI   5
SPRINGFIELD    CLEAR     11  -1  58 SW7       30.65R WCI   0
TAYLORVILLE    NOT AVBL
$$

ILZ033-039-045-046-055>057-062-063-280000-
EAST-CENTRAL ILLINOIS

CITY           SKY/WX    TMP DP  RH WIND       PRES   REMARKS
CHAMPAIGN      CLEAR     10   0  63 SW7       30.63R WCI  -1
MATTOON        CLEAR     12   0  58 N6        30.63R WCI   3
$$

ILZ079-100>102-280000-
SOUTHWEST ILLINOIS

CITY           SKY/WX    TMP DP  RH WIND       PRES   REMARKS
BELLEVILLE     PTCLDY    17   3  52 NE6       30.62S WCI   9
CAHOKIA*       PTCLDY    19   3  49 N9        30.63S WCI   8
$$

ILZ064>066-069>071-074>076-080>082-084>086-088>090-092>094-280000-
SOUTH-CENTRAL ILLINOIS

CITY           SKY/WX    TMP DP  RH WIND       PRES   REMARKS
CARBONDALE     CLOUDY    21   7  54 NE6       30.62S WCI  13
MARION         CLOUDY    23   9  54 NE9       30.62F WCI  13
MT. VERNON     PTCLDY    19   3  49 N7        30.63S WCI  10
$$

ILZ067-068-072-073-078-083-087-091-280000-
SOUTHEAST ILLINOIS

CITY           SKY/WX    TMP DP  RH WIND       PRES   REMARKS
LAWRENCEVILLE  CLEAR     20   3  48 N5        30.65R WCI  13
$$

ABBREVIATIONS USED IN REMARKS
   TC - TEMPERATURE IN CELSIUS
  WCI - WIND CHILL INDEX
   HX - HEAT INDEX
  VSB - VISIBILITY
$$



USA.gov is the U.S. government's official web portal to all federal, state and local government web resources and services.